Simultaneous Nadir Overpasses (SNOs) Predictions

Prediction of SNOs between LANDSAT-8 and NOAA-19 Satellite Orbit:

Table of predicted SNOs for the next 14.0 days since TLE Epoch: 7/28/2017
Index Date (LANDSAT-8) Time (LANDSAT-8) Lat,Lon (LANDSAT-8) SZA (LANDSAT-8 ) Date (NOAA-19) Time (NOAA-19) Lat,Lon (NOAA-19) SZA (NOAA-19 ) Distance(km) Time Diff (sec)
1 07/30/2017 14:39:41 -76.91, 151.31 121.33 07/30/2017 14:38:36 -76.96, 147.55 121.41 94.79 65
2 07/30/2017 15:29:18 76.37, -42.91 58.08 07/30/2017 15:29:29 76.38, -42.82 58.10 2.60 11
3 08/01/2017 20:13:33 76.53,-113.43 58.82 08/01/2017 20:12:21 76.62,-114.40 58.85 26.65 72
4 08/01/2017 21:03:03 -76.41, 53.80 121.31 08/01/2017 21:03:11 -76.39, 53.77 121.34 2.69 8
5 08/04/2017 01:47:16 -76.67, -16.39 120.45 08/04/2017 01:46:06 -76.74, -18.30 120.45 49.44 70
6 08/04/2017 02:36:47 76.41, 150.37 59.27 08/04/2017 02:37:04 76.40, 150.32 59.26 1.86 17
7 08/06/2017 07:21:04 76.48, 79.51 59.95 08/06/2017 07:19:52 76.47, 79.40 59.93 2.86 72
8 08/06/2017 08:10:33 -76.41,-113.07 120.12 08/06/2017 08:10:46 -76.39,-113.00 120.14 3.06 13
9 08/08/2017 12:54:50 -76.48, 176.07 119.43 08/08/2017 12:53:36 -76.53, 175.80 119.39 9.61 74
10 08/08/2017 13:44:17 76.40, -16.54 60.50 08/08/2017 13:44:38 76.40, -16.43 60.51 2.87 21
11 08/10/2017 18:28:34 76.46, -87.41 61.21 08/10/2017 18:27:26 76.48, -87.38 61.22 2.06 68




NCC Satellite Simultaneous Nadir Overpasses (SNOs) Prediction Service
